User: anonymous   Login
Location: Unspecified
(0.0000°N, 0.0000°E)
Time: 11:00:24
(UTC+00:00)
Language:

STARLINK-31324 - Orbit

View from above orbital plane
View from above orbital plane
View from above satellite
View from above satellite

Ground track
Ground track

The orbit is defined by the following mean orbital elements,

1 58976U          26145.44365664 +.00000000 +00000-0 +49869-4 0 00004
2 58976  53.1621 300.2406 0001120  71.7372 288.3750 15.30197294    05
Epoch (UTC): 25 May 2026 10:38:51
Eccentricity: 0.0001120
inclination: 53.1621°
perigee height: 474 km
apogee height: 476 km
right ascension of ascending node: 300.2406°
argument of perigee: 71.7372°
revolutions per day: 15.30197294
mean anomaly at epoch: 288.3750°

The dashed part of the orbit path shows where the satellite is in the earth's shadow,  

DLR